Location: Maccacari
(45.1333°N, 11.1333°E)
Time: 01:49:42
(UTC+00:00)

Tiros 1 despin weight - Pass Details

Date: 30 January 2021
Orbit: 593 x 642 km, 48.2° (Epoch: 07 March)

Event Time Altitude Azimuth Distance (km) Brightness Sun altitude
Rises 10:07:18 0° 201° (SSW) 2,915 ? 24.6°
Reaches altitude 10° 10:10:08 10° 184° (S) 2,003 ? 24.8°
Maximum altitude 10:13:27 20° 138° (SE) 1,456 ? 25.0°
Drops below altitude 10° 10:16:47 10° 91° (E) 1,991 ? 25.2°
Sets 10:19:34 0° 75° (ENE) 2,890 ? 25.4°
